Location: Treviso
(45.6669°N, 12.2430°E)
Time: 00:41:05
(UTC+02:00)

ISS - Pass Details

Date: 20 May 2017
Orbit: 402 x 408 km, 51.6° (Epoch: 30 May)

Event Time Altitude Azimuth Distance (km) Brightness Sun altitude
Exits shadow 00:42:35 10° 64° (ENE) 1,453 -0.8 -24.1°
Drops below altitude 10° 00:42:37 10° 64° (ENE) 1,468 -0.8 -24.1°
Sets 00:44:42 0° 63° (ENE) 2,330 0.3 -24.2°
